Lid_Strength_Index
1 2 2 3 4 5 4 2 5 1 -0 5 4 6 5 9 5 4 5 5 6 6 6 7 7 7 5 4 4 6 5 6 8 7 5 5 5 6 7 9 9 11 11 12
1 2 3 3 4 5 2 4 3 0 1 7 6 4 5 4 5 5 5 6 5 5 6 7 6 6 4 4 5 5 5 7 9 8 7 5 7 6 6 6 7 11 13 11
1 2 3 4 4 5 3 4 6 3 3 3 5 5 6 6 4 5 4 5 4 5 6 5 6 6 5 4 4 1 4 6 7 9 8 6 7 7 6 7 9 9 12 9
2 2 3 4 4 4 3 3 5 4 6 5 5 5 5 7 6 4 4 5 5 6 7 6 6 5 5 4 7 4 5 7 7 7 6 7 7 7 7 7 7 8 7 8
2 2 3 3 4 5 2 4 5 4 5 5 6 7 6 7 6 6 6 6 5 5 6 6 7 5 5 6 4 5 5 7 6 7 6 6 7 7 6 7 6 7 7 7
2 2 3 3 4 4 2 1 1 4 6 5 6 7 6 6 6 5 5 5 6 6 5 5 4 4 4 4 5 6 5 6 7 9 7 7 9 7 7 6 6 6 8 7
2 2 2 3 3 4 1 1 2 5 7 6 6 6 6 6 6 6 5 5 6 5 3 3 3 4 4 4 4 4 6 6 7 9 8 11 7 5 5 6 6 5 5 5
3 3 3 2 3 3 1 0 2 4 6 5 5 5 6 5 5 6 5 5 4 3 4 6 7 7 7 6 5 5 5 6 8 10 11 9 7 6 6 6 7 5 5 5
3 3 3 3 3 3 1 -0 -0 3 5 5 4 5 5 6 6 6 5 3 2 3 6 7 9 10 8 9 7 5 5 5 8 9 11 13 10 8 6 5 9 5 5 5
3 3 3 3 2 3 2 0 -1 2 5 3 3 5 6 4 5 6 5 5 5 4 6 8 11 9 8 11 13 9 8 8 9 9 11 9 8 7 5 10 9 4 4 4
4 4 3 3 3 2 2 0 -1 2 4 3 2 3 4 4 4 7 5 5 5 6 7 9 10 10 10 11 8 9 8 9 9 8 10 11 4 5 7 6 4 4 4 4
4 4 4 3 3 3 3 1 -1 -0 3 3 1 1 1 2 2 4 4 5 6 5 7 6 6 11 7 10 11 6 8 7 9 8 9 5 4 4 4 3 4 4 3 3
4 4 4 4 3 3 3 2 1 1 3 3 3 3 1 0 1 1 5 3 3 4 3 6 6 11 10 9 8 8 6 5 6 7 6 5 4 4 3 3 3 3 3 3
5 4 4 4 4 4 4 3 1 1 3 6 4 1 2 0 1 1 1 2 2 2 3 5 6 7 4 6 6 7 7 5 7 7 5 5 4 4 3 3 3 3 3 3
5 4 4 4 4 4 4 2 1 0 3 6 5 2 1 1 1 2 1 2 3 4 5 5 6 4 5 4 5 6 4 5 6 8 5 5 5 3 3 3 3 3 3 3
6 6 6 5 5 5 3 3 0 0 1 5 6 2 2 1 1 2 2 2 2 3 4 4 4 3 5 7 7 5 4 3 3 5 3 3 3 3 3 3 3 2 3 2
6 7 7 6 5 4 3 4 3 3 0 4 6 5 2 2 2 2 2 2 3 3 3 4 4 4 4 6 8 5 4 3 3 3 3 4 3 3 3 2 2 2 2 2
7 7 6 6 6 5 4 2 5 2 2 3 7 5 4 2 4 5 2 4 3 3 4 3 5 4 4 7 4 4 3 3 3 3 3 3 2 3 3 2 2 3 3 2
7 6 6 4 3 2 2 3 3 1 2 6 5 7 8 2 4 3 4 3 6 3 5 5 3 6 7 6 5 4 4 4 4 3 3 3 4 3 3 3 3 3 3 2
6 6 4 5 2 2 2 2 4 3 3 4 6 4 6 4 4 5 5 4 6 8 6 4 6 6 5 4 4 3 3 3 3 4 4 4 4 4 3 3 2 2 3 2
3 4 5 2 3 1 3 6 7 6 7 5 5 4 5 3 6 6 4 7 5 8 7 7 7 9 7 5 4 3 3 3 3 3 3 3 3 3 3 3 2 2 2 2
6 7 3 1 3 5 7 8 6 7 8 5 5 5 4 3 3 5 5 7 6 10 5 8 9 8 5 4 4 3 3 3 3 2 3 3 2 2 3 2 2 2 2 1
5 6 5 6 7 12 10 11 9 9 6 5 5 6 4 4 4 5 6 8 9 5 8 10 9 7 5 4 3 3 2 2 2 3 2 2 2 2 2 2 2 2 2 1
7 7 12 9 10 8 8 7 8 4 5 5 5 6 6 4 6 6 9 7 6 9 11 11 9 6 5 4 3 3 3 3 2 2 2 3 2 2 2 3 2 2 3 2
7 7 12 8 6 5 5 5 5 4 3 4 5 6 5 6 7 6 8 10 10 11 10 9 7 5 4 4 3 3 3 3 3 2 3 2 2 2 2 2 1 1 1 2
5 6 8 6 6 6 5 5 6 2 4 3 5 7 8 8 8 8 9 10 11 10 7 6 5 5 5 4 4 3 3 3 3 2 3 2 2 2 2 1 1 1 1 1
7 6 4 5 5 5 5 3 4 2 4 8 7 10 10 6 8 10 8 9 8 7 6 5 5 4 4 3 3 3 3 3 3 3 2 2 1 1 2 2 1 1 1 1